TimeCDT,TemperatureF,Dew PointF,Humidity,Sea Level PressureIn,VisibilityMPH,Wind Direction,Wind SpeedMPH,Gust SpeedMPH,PrecipitationIn,Events,Conditions,WindDirDegrees,DateUTC
12:53 AM,75.0,70.0,84,29.77,10.0,South,15.0,21.9,N/A,,Overcast,180,2013-04-11 05:53:00
1:53 AM,73.9,70.0,87,29.75,10.0,South,10.4,-,N/A,,Overcast,180,2013-04-11 06:53:00
2:53 AM,73.9,70.0,87,29.73,8.0,South,11.5,20.7,0.01,Rain,Light Rain,180,2013-04-11 07:53:00
3:53 AM,73.0,70.0,90,29.71,8.0,South,9.2,-,0.00,,Overcast,180,2013-04-11 08:53:00
4:53 AM,73.0,70.0,90,29.69,9.0,South,11.5,-,0.01,,Overcast,190,2013-04-11 09:53:00
5:53 AM,73.0,70.0,90,29.68,8.0,South,9.2,-,0.01,,Overcast,190,2013-04-11 10:53:00
6:53 AM,72.0,69.1,91,29.68,8.0,WNW,8.1,18.4,0.00,,Overcast,300,2013-04-11 11:53:00
6:59 AM,62.6,60.8,94,29.68,9.0,NW,10.4,-,N/A,,Overcast,320,2013-04-11 11:59:00
7:53 AM,57.9,55.0,90,29.70,10.0,North,11.5,-,0.00,Rain,Light Rain,360,2013-04-11 12:53:00
8:35 AM,53.6,50.0,88,29.76,1.8,NW,23.0,32.2,0.09,Rain,Heavy Rain,320,2013-04-11 13:35:00
8:39 AM,53.6,50.0,88,29.75,3.0,NNW,18.4,32.2,0.10,Rain,Light Rain,330,2013-04-11 13:39:00
8:53 AM,53.1,50.0,89,29.75,10.0,North,19.6,-,0.11,Rain,Light Rain,350,2013-04-11 13:53:00
9:12 AM,51.8,50.0,94,29.74,2.0,North,13.8,-,0.11,Rain,Light Rain,360,2013-04-11 14:12:00
9:19 AM,53.6,50.0,88,29.75,4.0,North,15.0,24.2,0.14,Rain,Rain,360,2013-04-11 14:19:00
9:53 AM,53.1,51.1,93,29.80,3.0,NNW,12.7,-,0.26,Rain,Light Rain,330,2013-04-11 14:53:00
10:00 AM,53.6,51.8,94,29.80,3.0,NNW,12.7,-,0.03,Rain,Heavy Rain,330,2013-04-11 15:00:00
10:07 AM,53.6,51.8,94,29.81,1.8,NNW,15.0,23.0,0.11,Rain,Heavy Rain,330,2013-04-11 15:07:00
10:17 AM,53.6,51.8,94,29.81,3.0,NNW,11.5,-,0.13,Rain,Light Rain,340,2013-04-11 15:17:00
10:34 AM,53.6,50.0,88,29.81,10.0,North,13.8,24.2,0.14,Rain,Light Rain,350,2013-04-11 15:34:00
10:41 AM,53.6,51.8,94,29.82,10.0,North,11.5,24.2,0.14,Rain,Light Rain,350,2013-04-11 15:41:00
10:53 AM,54.0,51.1,90,29.82,10.0,NNW,13.8,-,0.14,,Overcast,340,2013-04-11 15:53:00
11:00 AM,55.4,51.8,88,29.80,10.0,North,16.1,-,0.00,Rain,Light Rain,350,2013-04-11 16:00:00
11:53 AM,55.4,51.8,88,29.80,10.0,North,13.8,23.0,N/A,Rain,Light Rain,350,2013-04-11 16:53:00
12:22 PM,59.0,53.6,82,29.78,10.0,North,12.7,19.6,0.00,,Mostly Cloudy,360,2013-04-11 17:22:00
12:45 PM,57.2,51.8,82,29.79,10.0,North,13.8,-,0.00,,Mostly Cloudy,10,2013-04-11 17:45:00
12:53 PM,57.9,52.0,81,29.75,10.0,NNE,10.4,-,0.00,,Overcast,20,2013-04-11 17:53:00
1:53 PM,61.0,52.0,72,29.75,10.0,North,6.9,-,N/A,,Mostly Cloudy,350,2013-04-11 18:53:00
2:30 PM,62.6,53.6,72,29.78,10.0,WNW,15.0,-,N/A,,Mostly Cloudy,290,2013-04-11 19:30:00
2:53 PM,63.0,53.1,70,29.78,10.0,NW,17.3,21.9,N/A,,Mostly Cloudy,320,2013-04-11 19:53:00
3:35 PM,62.6,53.6,72,29.76,10.0,NW,11.5,-,N/A,,Scattered Clouds,310,2013-04-11 20:35:00
3:53 PM,63.0,52.0,67,29.76,10.0,NNW,12.7,19.6,N/A,,Clear,330,2013-04-11 20:53:00
4:53 PM,64.9,53.1,65,29.76,10.0,NNW,12.7,17.3,N/A,,Clear,340,2013-04-11 21:53:00
5:53 PM,64.0,51.1,63,29.78,10.0,NNW,10.4,-,N/A,,Clear,330,2013-04-11 22:53:00
6:53 PM,63.0,52.0,67,29.76,10.0,North,11.5,-,N/A,,Clear,350,2013-04-11 23:53:00
7:53 PM,60.1,51.1,72,29.80,10.0,North,3.5,-,N/A,,Clear,10,2013-04-12 00:53:00
8:53 PM,57.0,50.0,77,29.81,10.0,North,4.6,-,N/A,,Clear,360,2013-04-12 01:53:00
9:53 PM,55.9,48.9,77,29.84,10.0,North,5.8,-,N/A,,Clear,350,2013-04-12 02:53:00
10:53 PM,55.9,48.9,77,29.85,10.0,North,8.1,-,N/A,,Clear,360,2013-04-12 03:53:00
11:53 PM,53.1,46.0,77,29.87,10.0,Calm,Calm,-,N/A,,Clear,0,2013-04-12 04:53:00